• In United Kingdom
  • List of Countries
  • For 7 days
  • Water Temperature
  • Satellite Maps
  • Weather Map
  • Weather Widgets
  • user-avatar
    Login

    Hourly Weather Gagra

    Today, 17 July, Tuesday

    Time Temperature Precipitation Wind Pressure Humidity
    00:00 +18°C° 0.2 mm 3 mps 730 mmHg 79%
    01:00 +18°C° 1.1 mm 3 mps 730 mmHg 79%
    02:00 +18°C° 1.1 mm 3 mps 730 mmHg 80%
    03:00 +18°C° 1.1 mm 3 mps 730 mmHg 80%
    04:00 +19°C° 0.9 mm 3 mps 730 mmHg 81%
    05:00 +19°C° 0.9 mm 3 mps 730 mmHg 82%
    06:00 +19°C° 0.9 mm 3 mps 730 mmHg 83%
    07:00 +21°C° 0.2 mm 4 mps 730 mmHg 77%
    08:00 +22°C° 0.2 mm 4 mps 730 mmHg 72%
    09:00 +25°C° 0.2 mm 4 mps 730 mmHg 67%
    10:00 +26°C° 0.2 mm 4 mps 730 mmHg 64%
    11:00 +27°C° 0.2 mm 4 mps 730 mmHg 61%
    12:00 +27°C° 0.2 mm 4 mps 730 mmHg 59%
    13:00 +27°C° 0.2 mm 4 mps 730 mmHg 59%
    14:00 +27°C° 0.2 mm 3 mps 730 mmHg 60%
    15:00 +28°C° 0.2 mm 3 mps 730 mmHg 61%
    16:00 +27°C° 0.1 mm 2 mps 730 mmHg 64%
    17:00 +26°C° 0.1 mm 2 mps 730 mmHg 67%
    18:00 +26°C° 0.1 mm 2 mps 730 mmHg 70%
    19:00 +24°C° 0 mm 2 mps 730 mmHg 77%
    20:00 +23°C° 0 mm 2 mps 730 mmHg 83%
    21:00 +20°C° 0 mm 2 mps 731 mmHg 89%
    22:00 +19°C° 0 mm 2 mps 730 mmHg 87%
    23:00 +19°C° 0 mm 2 mps 730 mmHg 85%

    Tomorrow, 18 July, Wednesday

    Time Temperature Precipitation Wind Pressure Humidity
    00:00 +18°C° 0 mm 3 mps 730 mmHg 82%
    01:00 +18°C° 0 mm 3 mps 730 mmHg 80%
    02:00 +18°C° 0 mm 3 mps 730 mmHg 77%
    03:00 +18°C° 0 mm 3 mps 730 mmHg 75%
    04:00 +18°C° 0 mm 3 mps 729 mmHg 74%
    05:00 +19°C° 0 mm 3 mps 729 mmHg 73%
    06:00 +19°C° 0 mm 3 mps 729 mmHg 72%
    07:00 +23°C° 0 mm 2 mps 729 mmHg 64%
    08:00 +25°C° 0 mm 2 mps 729 mmHg 56%
    09:00 +28°C° 0 mm 2 mps 729 mmHg 48%
    10:00 +29°C° 0 mm 2 mps 729 mmHg 46%
    11:00 +30°C° 0 mm 2 mps 729 mmHg 44%
    12:00 +31°C° 0 mm 2 mps 729 mmHg 42%
    13:00 +31°C° 0 mm 2 mps 728 mmHg 43%
    14:00 +31°C° 0 mm 2 mps 728 mmHg 44%
    15:00 +31°C° 0 mm 2 mps 728 mmHg 46%
    16:00 +30°C° 0.1 mm 2 mps 728 mmHg 50%
    17:00 +29°C° 0.1 mm 3 mps 728 mmHg 55%
    18:00 +28°C° 0.1 mm 3 mps 727 mmHg 60%
    19:00 +27°C° 0 mm 3 mps 727 mmHg 66%
    20:00 +25°C° 0 mm 3 mps 727 mmHg 71%
    21:00 +22°C° 0 mm 3 mps 728 mmHg 77%
    22:00 +21°C° 0 mm 2 mps 727 mmHg 69%
    23:00 +21°C° 0 mm 2 mps 727 mmHg 61%

    Day after tomorrow, 19 July, Thursday

    Time Temperature Precipitation Wind Pressure Humidity
    00:00 +20°C° 0 mm 2 mps 727 mmHg 54%
    01:00 +20°C° 0 mm 2 mps 727 mmHg 46%
    02:00 +20°C° 0 mm 2 mps 727 mmHg 38%
    03:00 +20°C° 0 mm 2 mps 727 mmHg 30%
    04:00 +21°C° 0 mm 2 mps 727 mmHg 34%
    05:00 +21°C° 0 mm 2 mps 727 mmHg 39%
    06:00 +21°C° 0 mm 2 mps 727 mmHg 43%
    07:00 +25°C° 0 mm 2 mps 727 mmHg 41%
    08:00 +28°C° 0 mm 1 mps 728 mmHg 40%
    09:00 +31°C° 0 mm 1 mps 728 mmHg 38%
    10:00 +31°C° 0.1 mm 1 mps 728 mmHg 37%
    11:00 +32°C° 0.1 mm 1 mps 728 mmHg 37%
    12:00 +34°C° 0.1 mm 2 mps 728 mmHg 36%
    13:00 +32°C° 0.1 mm 2 mps 728 mmHg 39%
    14:00 +32°C° 0.1 mm 2 mps 728 mmHg 42%
    15:00 +31°C° 0.1 mm 2 mps 728 mmHg 46%
    16:00 +31°C° 0.2 mm 2 mps 728 mmHg 51%
    17:00 +30°C° 0.2 mm 2 mps 728 mmHg 56%
    18:00 +29°C° 0.2 mm 2 mps 728 mmHg 62%
    19:00 +27°C° 0.1 mm 3 mps 729 mmHg 65%
    20:00 +26°C° 0.1 mm 3 mps 729 mmHg 69%
    21:00 +24°C° 0.1 mm 3 mps 729 mmHg 72%
    22:00 +22°C° 0 mm 3 mps 729 mmHg 68%
    23:00 +22°C° 0 mm 3 mps 729 mmHg 64%

    20 July, Friday

    Time Temperature Precipitation Wind Pressure Humidity
    00:00 +23°C° 0 mm 2 mps 729 mmHg 60%
    01:00 +23°C° 0 mm 2 mps 729 mmHg 57%
    02:00 +21°C° 0 mm 2 mps 728 mmHg 54%
    03:00 +21°C° 0 mm 2 mps 728 mmHg 52%
    04:00 +23°C° 0 mm 2 mps 728 mmHg 53%
    05:00 +23°C° 0 mm 2 mps 728 mmHg 55%
    06:00 +23°C° 0 mm 2 mps 728 mmHg 57%
    07:00 +26°C° 0.1 mm 2 mps 729 mmHg 52%
    08:00 +29°C° 0.1 mm 2 mps 729 mmHg 48%
    09:00 +31°C° 0.1 mm 1 mps 729 mmHg 43%
    10:00 +32°C° 0.1 mm 2 mps 729 mmHg 42%
    11:00 +34°C° 0.1 mm 2 mps 729 mmHg 42%
    12:00 +35°C° 0.1 mm 3 mps 729 mmHg 41%
    13:00 +34°C° 0.6 mm 3 mps 729 mmHg 47%
    14:00 +33°C° 0.6 mm 3 mps 729 mmHg 52%
    15:00 +33°C° 0.6 mm 4 mps 729 mmHg 58%
    16:00 +32°C° 1 mm 4 mps 729 mmHg 63%
    17:00 +30°C° 1 mm 4 mps 729 mmHg 67%
    18:00 +30°C° 1 mm 4 mps 729 mmHg 72%
    19:00 +28°C° 0.3 mm 4 mps 729 mmHg 75%
    20:00 +26°C° 0.3 mm 3 mps 729 mmHg 78%
    21:00 +24°C° 0.3 mm 3 mps 729 mmHg 81%
    22:00 +22°C° 0.1 mm 3 mps 729 mmHg 82%
    23:00 +22°C° 0.1 mm 3 mps 729 mmHg 82%

    21 July, Saturday

    Time Temperature Precipitation Wind Pressure Humidity
    00:00 +23°C° 0.1 mm 2 mps 729 mmHg 82%
    01:00 +21°C° 0.1 mm 2 mps 729 mmHg 82%
    02:00 +21°C° 0.1 mm 2 mps 729 mmHg 82%
    03:00 +21°C° 0.1 mm 2 mps 729 mmHg 82%
    04:00 +21°C° 0.5 mm 2 mps 729 mmHg 81%
    05:00 +23°C° 0.5 mm 2 mps 729 mmHg 80%
    06:00 +23°C° 0.5 mm 2 mps 729 mmHg 79%
    07:00 +25°C° 0.2 mm 2 mps 730 mmHg 71%
    08:00 +28°C° 0.2 mm 2 mps 730 mmHg 64%
    09:00 +30°C° 0.2 mm 1 mps 730 mmHg 57%
    10:00 +30°C° 0.3 mm 2 mps 730 mmHg 60%
    11:00 +30°C° 0.3 mm 2 mps 730 mmHg 63%
    12:00 +31°C° 0.3 mm 2 mps 730 mmHg 66%
    13:00 +30°C° 0.7 mm 2 mps 730 mmHg 69%
    14:00 +30°C° 0.7 mm 3 mps 730 mmHg 73%
    15:00 +29°C° 0.7 mm 3 mps 730 mmHg 77%
    16:00 +29°C° 0.7 mm 3 mps 730 mmHg 79%
    17:00 +28°C° 0.7 mm 3 mps 730 mmHg 82%
    18:00 +28°C° 0.7 mm 3 mps 730 mmHg 84%
    19:00 +26°C° 0.4 mm 2 mps 730 mmHg 87%
    20:00 +25°C° 0.4 mm 2 mps 730 mmHg 89%
    21:00 +24°C° 0.4 mm 2 mps 730 mmHg 92%
    22:00 +24°C° 0 mm 2 mps 730 mmHg 91%
    23:00 +23°C° 0 mm 2 mps 730 mmHg 91%

    22 July, Sunday

    Time Temperature Precipitation Wind Pressure Humidity
    00:00 +23°C° 0 mm 1 mps 730 mmHg 90%
    01:00 +23°C° 0.2 mm 1 mps 730 mmHg 90%
    02:00 +23°C° 0.2 mm 1 mps 729 mmHg 90%
    03:00 +22°C° 0.2 mm 1 mps 729 mmHg 89%
    04:00 +23°C° 0.1 mm 1 mps 729 mmHg 89%
    05:00 +23°C° 0.1 mm 1 mps 729 mmHg 88%
    06:00 +23°C° 0.1 mm 1 mps 729 mmHg 88%
    07:00 +25°C° 0 mm 1 mps 729 mmHg 81%
    08:00 +27°C° 0 mm 1 mps 729 mmHg 75%
    09:00 +29°C° 0 mm 2 mps 729 mmHg 68%
    10:00 +29°C° 0.3 mm 2 mps 729 mmHg 71%
    11:00 +29°C° 0.3 mm 2 mps 729 mmHg 74%
    12:00 +29°C° 0.3 mm 2 mps 729 mmHg 77%
    13:00 +29°C° 0.6 mm 2 mps 729 mmHg 78%
    14:00 +29°C° 0.6 mm 2 mps 728 mmHg 78%
    15:00 +29°C° 0.6 mm 2 mps 728 mmHg 79%
    16:00 +29°C° 0.6 mm 2 mps 728 mmHg 80%
    17:00 +28°C° 0.6 mm 2 mps 728 mmHg 82%
    18:00 +28°C° 0.6 mm 2 mps 728 mmHg 83%
    19:00 +27°C° 0.2 mm 1 mps 728 mmHg 87%
    20:00 +25°C° 0.2 mm 1 mps 728 mmHg 91%
    21:00 +24°C° 0.2 mm 1 mps 728 mmHg 95%
    22:00 +24°C° 0.1 mm 1 mps 728 mmHg 94%
    23:00 +24°C° 0.1 mm 1 mps 728 mmHg 94%
    Show more